Content
SEND FEEDBACK

Daily
Averages
Monthly
Summary
Philippines

QUEZON CITY, PHILIPPINES


Home > Asia > Philippines
Elevation: 46 meters     Latitude: 14 39N     Longitude: 121 03E

WEATHER
 
SELECT A DAY
Number of Records: 172,513;   Date Range: 7/1/96 - 7/29/14
 
SHARE

PRINT THIS DATA

[ ← Previous Day ]
WEATHER ALMANAC - 26 MARCH, 2013
[ Next Day → ]
[ °F ]   °C
Weather ElementAverageHighLow
Temperature29.8 °C34 °C (2:00 pm)27 °C (3:00 am)
Dewpoint21.8 °C23 °C (5:00 am)19 °C (3:00 pm)
Humidity61.1 %79 % (5:00 am)34 % (2:00 pm)
Barometer1009.8 hPa1011.5 hPa (11:00 am)1008.1 hPa (2:00 pm)
Wind Speed14.8 km/h20.4 km/h (12:00 pm)
Wind Gust40.7 km/h (11:00 am)
Weather ElementAverage
Visibility9.8 km
Wind DirectionESE (114.2 °)

Weather ElementTotal
Precipitation---
Cooling Degree Days12.2 (Base 18.3)
Growing Degree Days20.5 (Base 10)
Averaged from 31 records on 26 March, 2013
WEATHER CONDITIONS BREAKOUT
WIND DIRECTION BREAKOUT
WEATHER BY HOUR - 26 MARCH, 2013
[ °F ]   °C
Local TimeTemperatureDewpointHumidityBarometerVisibilityWind DirectionWind SpeedGust SpeedPrecipitationEventsConditions
1:00 AM28 °C22 °C70 %1010.2 hPa10 kmESE (120°)14.8 km/hMostly Cloudy
2:00 AM27.8 °C21.7 °C62 %1009.5 hPa9.7 kmESE (110°)14.3 km/hHaze
2:00 AM28 °C22 °C70 %1009.1 hPa10 kmESE (110°)13 km/hPartly Cloudy
3:00 AM27 °C22 °C74 %1009.1 hPa10 kmESE (110°)13 km/hPartly Cloudy
4:00 AM27 °C22 °C74 %1009.1 hPa10 kmSE (130°)9.3 km/hPartly Cloudy
5:00 AM27.2 °C22.8 °C70 %1009.1 hPa9.7 kmESE (110°)14.3 km/hHaze
5:00 AM27 °C23 °C79 %1009.1 hPa10 kmESE (110°)13 km/hPartly Cloudy
6:00 AM27 °C23 °C79 %1010.2 hPa10 kmESE (120°)13 km/hPartly Cloudy
7:00 AM28 °C23 °C74 %1010.2 hPa10 kmEast (100°)13 km/hPartly Cloudy
8:00 AM28.9 °C22.8 °C62 %1011.2 hPa9.7 kmESE (110°)14.3 km/hHaze
8:00 AM29 °C23 °C70 %1011.2 hPa10 kmESE (110°)16.7 km/hPartly Cloudy
9:00 AM30 °C23 °C66 %1011.2 hPa10 kmESE (110°)16.7 km/hPartly Cloudy
10:00 AM31 °C23 °C62 %1011.2 hPa10 kmESE (110°)16.7 km/hPartly Cloudy
11:00 AM31.7 °C22.8 °C51 %1011.5 hPa9.7 kmESE (120°)18 km/hPartly Cloudy
11:00 AM32 °C23 °C59 %1011.2 hPa10 kmESE (120°)18.5 km/h40.7 km/hPartly Cloudy
12:00 PM32 °C23 °C59 %1010.2 hPa10 kmESE (120°)20.4 km/hPartly Cloudy
1:00 PM32 °C22 °C55 %1009.1 hPa10 kmESE (120°)18.5 km/hPartly Cloudy
2:00 PM33.9 °C20 °C34 %1008.8 hPa9.7 kmESE (120°)18 km/hScattered Clouds
2:00 PM34 °C22 °C49 %1008.1 hPa10 kmESE (120°)20.4 km/hPartly Cloudy
3:00 PM33 °C19 °C43 %1008.1 hPa10 kmESE (110°)16.7 km/hPartly Cloudy
4:00 PM33 °C20 °C46 %1008.1 hPa10 kmESE (110°)18.5 km/hScattered Clouds
5:00 PM32.2 °C20.6 °C41 %1008.1 hPa9.7 kmESE (120°)14.3 km/hScattered Clouds
5:00 PM31 °C21 °C55 %1008.1 hPa10 kmESE (120°)16.7 km/hScattered Clouds
6:00 PM31 °C20 °C52 %1008.1 hPa10 kmESE (110°)14.8 km/hMostly Cloudy
7:00 PM30 °C21 °C58 %1009.1 hPa10 kmESE (120°)13 km/hMostly Cloudy
8:00 PM29.4 °C22.2 °C57 %1010.5 hPa9.7 kmESE (110°)14.3 km/hScattered Clouds
8:00 PM29 °C22 °C66 %1010.2 hPa10 kmESE (110°)14.8 km/hPartly Cloudy
9:00 PM29 °C22 °C66 %1010.2 hPa10 kmEast (100°)9.3 km/hPartly Cloudy
10:00 PM28 °C21 °C66 %1011.2 hPa10 kmESE (110°)7.4 km/hPartly Cloudy
11:00 PM27.8 °C21.1 °C59 %1011.5 hPa9.7 kmESE (120°)10.8 km/hScattered Clouds
11:00 PM28 °C21 °C66 %1011.2 hPa10 kmESE (120°)9.3 km/hPartly Cloudy
Hourly data recorded from RPLL, located 0 kilometers away from Quezon City, Philippines







STORIES FROM OUR PARTNERS